Location: Sungai Bunut
(2.6333°N, 113.7333°E)
Time: 14:18:56
(UTC+00:00)

Altair - Pass Details

Date: 11 December 2023
Orbit: 1501 x 1682 km, 47.2° (Epoch: 24 February)

Event Time Altitude Azimuth Distance (km) Brightness Sun altitude
Rises 22:08:38 0° 261° (W) 4,923 9.6 -3.3°
Reaches altitude 10° 22:13:38 10° 281° (WNW) 3,916 9.0 -2.1°
Maximum altitude 22:19:08 16° 316° (NW) 3,428 8.8 -0.9°
Drops below altitude 10° 22:24:35 10° 350° (N) 3,848 9.3 0.4°
Sets 22:29:30 0° 11° (N) 4,796 10.0 1.5°
